Location: Caltech
(34.1382°N, 118.1253°W)
Time: 03:20:07
(UTC-07:00)

PANSAT - Visible Passes

Search period start: 23 September 2014 00:00
Search period end: 03 October 2014 00:00
Orbit: 491 x 497 km, 28.5° (Epoch: 21 September)

Date Brightness Start Highest point End Pass type
(mag) Time Alt. Az. Time Alt. Az. Time Alt. Az.
29 Sep 9.8 20:35:51 10° SW 20:37:09 17° SSW 20:37:09 17° SSW visible
30 Sep 9.0 20:10:33 10° SW 20:13:26 26° S 20:13:26 26° S visible
01 Oct 8.9 19:45:15 10° SW 19:48:34 27° S 19:49:40 24° SE visible
02 Oct 8.9 19:19:56 10° SW 19:23:17 28° S 19:25:50 15° ESE visible
02 Oct 10.4 20:59:34 10° WSW 21:00:15 14° WSW 21:00:15 14° WSW visible
